sat.trackr.live / text

‹ back to catalog

STARLINK-1400

NORAD 45700 · 2020-035AV

PAYLOAD ACTIVE UNKNOWN

§ Identity

Operator
Country
US
Launch date
2020-06-04
Launch site
AFETR
Launch vehicle
Mass (kg)
RCS (m²)

Purposes: comms

External: N2YO · Heavens-Above · Gunter

§ Orbital elements

Epoch: 2026-09-09T03:53:12.937056Z

Period
90.90 min
Inclination
53.0374°
Eccentricity
0.0005709
Mean motion
15.84164487 rev/d
Perigee alt
314.9 km
Apogee alt
322.5 km
Semi-major
6,696.8 km
B*
4.6260e-4
RAAN
199.4861°
Arg perigee
64.9068°
Mean anomaly
295.2546°
Rev number
34,811

§ Raw data

STARLINK-14001 45700U 20035AV  26252.16195529  .00107239  00000+0  46260-3 0  99932 45700  53.0374 199.4861 0005709  64.9068 295.2546 15.84164487348110

JSON: /api/v1/satellites/45700 · /tle

For live sub-satellite position, see the globe view (requires WebGL).

§ Visibility from observer

Set your observer location to see the next 7 days of passes ≥ 10°. The values pass through the URL so the page stays shareable.

No JS? Fill the form by hand. The geolocation button needs JavaScript.